Location: *
(33.6842°N, 117.7925°W)
Time: 06:05:10
(UTC+00:00)

ATLAS 2AS CENTAUR R/B - Pass Details

Date: 21 October 2019
Orbit: 926 x 1286 km, 63.7° (Epoch: 01 November)

Event Time Altitude Azimuth Distance (km) Brightness Sun altitude
Exits shadow 12:13:56 28° 309° (NW) 2,210 3.9 -22.9°
Maximum altitude 12:14:20 28° 314° (NW) 2,206 4.0 -22.8°
Drops below altitude 10° 12:21:01 10° 11° (N) 3,285 5.4 -21.4°
Sets 12:24:23 0° 22° (NNE) 4,238 6.1 -20.7°
